Regional Weather Roundup
Issued by NWS Wakefield, VA

Home | Current Version | Previous Version | Text Only | Print | Product List | Glossary On
Versions: 1 2 3 4 5 6 7 8 9 10 11 12 13 14 15 16 17 18 19 20 21 22 23 24 25 26 27 28 29 30 31 32 33 34 35 36 37 38 39 40 41 42 43 44 45 46 47 48 49 50
558
ASUS41 KAKQ 041315
RWRAKQ

REGIONAL WEATHER ROUNDUP
NATIONAL WEATHER SERVICE WAKEFIELD VA
800 AM EST SUN DEC 04 2016

Note: "fair" indicates few or no clouds below 12,000 feet with no
significant weather and/or obstructions to visibility. * = Denotes
station may not report precipitation (e.g., rain,snow,etc.),
thunder or fog.

VAZ042-051-052>054-056-041400-
NORTHERN VIRGINIA

CITY           SKY/WX    TMP DP  RH WIND       PRES   REMARKS
WASH NATIONAL  CLOUDY    40  28  62 NW6       30.30R
DULLES         CLOUDY    35  26  69 CALM      30.29S
FORT BELVOIR   CLOUDY    38  27  65 NW5       30.30R
QUANTICO       CLOUDY    37  28  70 CALM      30.31S
FREDERICKSBRG* CLOUDY    34  32  93 CALM      30.29S
STAFFORD*      CLOUDY    33  29  87 NW7       30.34R
WARRENTON      CLOUDY    31  27  84 CALM      30.28S
CULPEPER*      CLOUDY    32  30  94 CALM      30.30S
MANASSAS*      CLEAR     28  28 100 CALM      30.31R
LEESBURG*      CLOUDY    37  32  81 MISG      30.30S
WINCHESTER     CLOUDY    30  27  86 CALM      30.28S
FRONT ROYAL*   FAIR      32  28  86 CALM      30.27F
LURAY*         FAIR      30  30 100 CALM      30.28S
$$

VAZ048-049-060>072-079>083-041400-
CENTRAL AND SOUTH CENTRAL VIRGINIA

CITY           SKY/WX    TMP DP  RH WIND       PRES   REMARKS
RICHMOND       CLOUDY    37  28  70 N6        30.29R
CHESTERFIELD*  FAIR      37  18  44 CALM      30.31R
PETERSBURG*    CLOUDY    37  29  75 CALM      30.31R
HANOVER        PTCLDY    34  27  75 CALM      30.31R
TAPPAHANNOCK*  PTCLDY    33  33  99 CALM      30.29R
QUINTON*       FAIR      36  28  75 CALM      30.29R
CHARLOTTSVILLE PTCLDY    33  27  78 CALM      30.28F
GORDONSVILLE*  FAIR      35  29  78 CALM      30.29R
ORANGE*          N/A     36  30  80 CALM      30.30R
LOUISA*        CLOUDY    37  32  81 CALM      30.28R
BUMPASS*       FAIR      34  30  83 CALM      30.29R
FARMVILLE*     CLOUDY    37  33  89 CALM      30.30R
CREWE*         FAIR      36  30  79 CALM      30.29R
FORT PICKETT*  FAIR      37  25  63 CALM      30.30R
CHASE CITY*    PTSUNNY   38  27  65 CALM      30.30R
CLARKSVILLE*   PTSUNNY   37  30  75 CALM      30.30R
SOUTH HILL*    MOCLDY    37  31  79 CALM      30.36R
LAWRENCEVILLE* FAIR      37  29  72 CALM      30.30R
EMPORIA*       CLOUDY    36  30  80 CALM      30.32R
$$

VAZ088>098-041400-
SOUTHEAST VIRGINIA

CITY           SKY/WX    TMP DP  RH WIND       PRES   REMARKS
NORFOLK        CLOUDY    45  36  70 N10       30.27R
VIRGINIA BEACH CLOUDY    44  37  76 N3        30.26R
NORFOLK NAVAL  CLOUDY    43  35  73 N8        30.30R
WEST POINT*    CLOUDY    35  30  83 CALM      30.31R
SALUDA*        FAIR      38  32  79 NW3       30.28S
NEWPORT NEWS   CLOUDY    38  32  79 N5        30.29R
LANGLEY AFB    CLOUDY    40  33  76 NW6       30.28R
FORT EUSTIS    CLOUDY    39  30  70 VRB5      30.26S
WILLIAMSBURG*  CLOUDY    39  32  75 CALM      30.29S
HR EXEC AP*    FAIR      36  34  93 CALM      30.27F
FRANKLIN*      CLOUDY    37  32  84 CALM      30.30S
US460-WAKEFLD  MOCLDY    37  31  78 CALM      30.29S
$$

VAZ020-022-025-037-045-041400-
WEST CENTRAL AND SOUTHWEST VIRGINIA

CITY           SKY/WX    TMP DP  RH WIND       PRES   REMARKS
STAUNTON*      CLOUDY    29  27  93 CALM      30.29S
WAYNESBORO*    FAIR      30  27  91 CALM      30.26S
HOT SPRINGS VA CLOUDY    27  27 100 SE3       30.15R
LYNCHBURG      CLOUDY    36  29  75 CALM      30.30R
DANVILLE       CLOUDY    38  31  76 CALM      30.31R
SOUTH BOSTON*  CLOUDY    37  35  92 CALM      30.31R
MARTINSVILLE   CLOUDY    37  28  70 E3        30.32R
ROANOKE        CLOUDY    36  28  73 SE3       30.31R
BLACKSBURG     CLOUDY    34  28  81 E5        30.27R
DUBLIN*        CLOUDY    35  30  82 CALM      30.25S
MARION*        LGT RAIN  34  30  86 E5        30.23S
HILLSVILLE*    MIX PCPN  34  29  83 CALM      30.19F
RICHLANDS*     LGT RAIN  34  32  92 CALM      30.16F
WISE*          LGT RAIN  39  39 100 S7        30.15F
ABINGDON*      DRIZZLE   37  36  93 E8        30.19S
$$

MDZ021>025-VAZ099-100-041400-
SOUTHERN MARYLAND AND THE DELMARVA PENINSULA

CITY           SKY/WX    TMP DP  RH WIND       PRES   REMARKS
PATUXENT RIVER MOCLDY    40  29  64 N9        30.28S
BAY BRIDGE APT CLOUDY    39  32  75 NW9       30.28R
LEONARDTOWN    CLOUDY    36  28  75 CALM      30.30R
DOVER          CLOUDY    42  33  72 W7        30.25S
GEORGETOWN     CLOUDY    37  31  78 W3        30.27S
EASTON         PTCLDY    39  30  70 NW3       30.31S
CAMBRIDGE      PTCLDY    37  32  81 CALM      30.26F
SALISBURY      PTCLDY    33  30  88 CALM      30.27S
OCEAN CITY     MOCLDY    36  30  79 NW6       30.27S
WALLOPS ISLAND CLOUDY    38  33  82 NW6       30.28S
ACCOMACK*      PTCLDY    38  35  89 N3        30.27S
$$

NCZ012>017-030>032-041400-
NORTH CENTRAL AND EASTERN NORTH CAROLINA

CITY           SKY/WX    TMP DP  RH WIND       PRES   REMARKS
ROANOKE RAPIDS FAIR      37  32  81 CALM      30.30R
RALEIGH        CLOUDY    42  30  62 E5        30.31R
ELIZABETH CITY CLOUDY    43  36  76 NW7       30.27S
AHOSKIE*       CLOUDY    38  32  79 CALM      30.30R
EDENTON*       CLOUDY    42  36  79 CALM      30.29R
CURRITUCK*     CLOUDY    42  36  81 NW3       30.28S
KILL DEVIL HLS CLOUDY    47  39  71 N5        30.25R
MANTEO         CLOUDY    46  41  81 N5        30.27R
CAPE HATTERAS  NOT AVBL
TARBORO*       NOT AVBL
GOLDSBORO      CLOUDY    43  35  73 VRB5      30.29R
WASHINGTON       N/A     41  35  79 CALM      30.30R
GREENVILLE     NOT AVBL
NEW BERN       CLOUDY    44  37  76 N6        30.30R
WILMINGTON     CLOUDY    45  37  73 N3        30.29R
$$

VAZ048-041400-
ELSEWHERE

CITY           SKY/WX    TMP DP  RH WIND       PRES   REMARKS
HARRISBURG PA  CLOUDY    42  27  55 N8        30.25S
BALTIMORE      CLOUDY    37  30  75 W3        30.27S
ANNAPOLIS      CLOUDY    41  30  65 NW6       30.28R
ANDREWS AFB    CLOUDY    38  27  64 NW10      30.27R
PHILADELPHIA   MOCLDY    41  25  53 N3        30.26R
HENDERSON NC   CLOUDY    36  28  71 CALM      30.30R
GREENSBORO     LGT RAIN  40  31  70 CALM      30.27S
ROCKY MOUNT    CLOUDY    41  33  73 N3        30.31R
$$

VAZ100-041400-
MARINE

STATION/POSITION TIME  TEMP    WIND        PRES    WAVE   SWELL
                       AIR SEA DIR/SP/G            HT/PER HT/PER
                 (UTC) (F)     (DEG/KT/KT) (MB)    (FT/S) (FT/S)
BRANDYWINE LGT   1248   43     340/ 10/ 12   N/A
CAPE MAY NJ      1248   44 46  350/  4/  7 1024.0R
LEWES DE         1248   40 49  290/  6/  8 1024.4F
OCEAN-CITY-INLET 1242   38 49  320/  5/  6 1025.3R
WACHAPREAGUE VA  1242   40 47  330/  2/  3 1024.8R
THOMAS POINT MD  1200   39 49  310/ 12/ 13   N/A
GOOSES REEF MD   1300   42 50  350/ 14/ 16 1025.8    1/ 3
COVE POINT MD    1242   41     340/ 11/ 16 1025.6S
SOLOMONS ISLAND  1242   40 50  340/  6/  8   N/A
BISHOPS HEAD MD  1242   39 43  320/  6/  8 1025.4R
PINEY POINT MD   1248          360/ 11/ 12   N/A
POTOMAC MD       1300   40 51  350/  8/ 10 1024.5    1/ 2
CAMBRIDGE MD     1242   41 47  300/  6/  8 1024.4R
LEWISETTA VA     1242   42 48  350/  7/ 10 1025.0F
RAPPAHANNOCK LGT 1248          350/ 13/ 14 1025.3R
STINGRAY PT      1300   42     360/ 12/ 14 1025.5    1/ 2
YORK RVR RNG VA  1242   42     360/ 13/ 16 1024.6R
YORKTOWN VA      1242   39 52  330/  7/  9 1025.0S
JAMESTOWN VA     1300   38 52  320/  4/  6   N/A     0
DOMINION TERM VA 1242   41      60/  2/  5 1025.2R
KIPTOPEKE VA     1248      50   20/  3/  4   N/A
CHES BAY BRIDGE  1242   45 53  360/ 11/ 14 1024.8R
CAPE HENRY VA    1242   46     360/ 12/ 14   N/A
WILLOUBY STN VA  1242   41     350/  9/ 10 1026.0R
S CRANEY ISL VA  1242   42     350/  7/ 10 1025.0R
CAPE HENRY BUOY  1242      56                N/A     3/ 5
1ST LANDING BUOY 1300   45 52              1025.0    2/ 3
CAPE CHARLES BUO 1256      55                N/A     3/ 6
OFFSHORE WE BUOY 1221      57                N/A     4/ 6
64NM E OF VA BCH 1150   49 60  360/ 14/ 17 1023.4    5/ 7   3/ 7
DUCK PIER NC     1242   49 55   10/ 10/ 12 1024.2R
44100 DUCK FRF   1205      57                N/A     4/ 7
OREGON INLET NC  1242   49 54  360/  8/ 12 1024.7R
HATTERAS NC      1242   49 56  350/ 11/ 12 1024.1R
DIAMOND SHLS NC  1250   54 76   20/ 12/ 16 1024.0R   5/ 9   5/ 9
CAPE LOOKOUT NC  1200   49      10/  9/ 11 1024.4R
$$




USA.gov is the U.S. government's official web portal to all federal, state and local government web resources and services.